Weather History for Ashgabat, Turkmenistan

Change the Weather History Date:

Saturday, February 16, 2013

  Actual Average Record
Temperature  
Mean Temperature 46 °F -  
Max Temperature 64 °F 55 °F - ()
Min Temperature 29 °F 37 °F - ()
Degree Days  
Heating Degree Days 18    
Moisture  
Dew Point 31 °F    
Average Humidity 54    
Maximum Humidity 87    
Minimum Humidity 16    
Precipitation  
Precipitation 0.00 in 0.04 in - ()
Sea Level Pressure  
Sea Level Pressure 29.87 in    
Wind  
Wind Speed 5 mph ()    
Max Wind Speed 13 mph    
Max Gust Speed -    
Visibility 6.1 miles    
Events      
T = Trace of Precipitation, MM = Missing Value Source: Averaged Metar Reports

Daily Weather History Graph

Daily Weather History Graph

Search for Another Location

Airport:

Trip Planner

Search our weather history database for the weather conditions in past years. The results will help you decide how hot, cold, wet, or windy it might be!

Date:

Astronomy

Feb. 16, 2013 Rise Set
Actual Time 7:55 AM TMT 6:46 PM TMT
Civil Twilight 7:28 AM TMT 7:13 PM TMT
Nautical Twilight 6:57 AM TMT 7:43 PM TMT
Astronomical Twilight 6:27 AM TMT 8:14 PM TMT
Moon 10:59 AM TMT (2/16) 12:15 AM TMT (2/16)
Length of Visible Light 11h 44m
Length of Day
10h 50m
Waxing Crescent, 35% of the Moon is Illuminated
Feb 16
Waxing Crescent
Feb 18
First Quarter
Feb 26
Full
Mar 5
Last Quarter
Mar 12
New

Hourly Weather History & Observations

Time (TMT) Temp. Windchill Dew Point Humidity Pressure Visibility Wind Dir Wind Speed Gust Speed Precip Events Conditions
12:00 AM 41.0 °F 36.5 °F 24.8 °F 53% 30.09 in 6.2 mi East 6.7 mph - N/A   Partly Cloudy
1:00 AM 42.8 °F 40.2 °F 23.0 °F 46% 30.06 in 6.2 mi SE 4.5 mph - N/A   Partly Cloudy
2:00 AM 40 °F - 24 °F 40% 30.08 in 6 mi SE 2.2 mph - -  
2:00 AM 39.2 °F 34.4 °F 24.8 °F 56% 30.01 in 6.2 mi ESE 6.7 mph - N/A   Clear
3:00 AM 37.4 °F 32.2 °F 24.8 °F 60% 29.98 in 6.2 mi ESE 6.7 mph - N/A   Clear
4:00 AM 37.4 °F - 26.6 °F 65% 29.95 in 6.2 mi Variable 2.2 mph - N/A   Clear
5:00 AM 35 °F - 29 °F 71% 29.99 in 6 mi West 2.2 mph - -  
5:00 AM 35.6 °F - 26.6 °F 70% 29.92 in 6.2 mi Calm Calm - N/A   Clear
6:00 AM 33.8 °F 29.7 °F 28.4 °F 81% 29.92 in 6.2 mi WSW 4.5 mph - N/A   Clear
6:30 AM 33.8 °F 29.7 °F 28.4 °F 81% 29.92 in 6.2 mi West 4.5 mph - N/A   Clear
7:00 AM 32.0 °F 27.6 °F 28.4 °F 87% 29.92 in 6.2 mi North 4.5 mph - N/A   Clear
7:30 AM 32.0 °F - 28.4 °F 87% 29.92 in 6.2 mi SW 2.2 mph - N/A   Clear
8:00 AM 35 °F - 28 °F 66% 29.96 in 6 mi WSW 2.2 mph - -  
8:00 AM 32.0 °F - 28.4 °F 87% 29.89 in 6.2 mi WSW 2.2 mph - N/A   Clear
9:00 AM 37.4 °F - 32.0 °F 81% 29.92 in 5.0 mi Calm Calm - N/A   Clear
10:00 AM 42.8 °F 40.2 °F 33.8 °F 70% 29.89 in 6.2 mi East 4.5 mph - N/A   Clear
11:00 AM 47 °F - 32 °F 45% 29.93 in 6 mi East 2.2 mph - -  
11:00 AM 48.2 °F - 35.6 °F 62% 29.89 in 6.2 mi ENE 4.5 mph - N/A   Clear
12:00 PM 51.8 °F - 35.6 °F 54% 29.86 in 6.2 mi East 8.9 mph - N/A   Clear
1:00 PM 55.4 °F - 33.8 °F 44% 29.83 in 6.2 mi ESE 11.2 mph - N/A   Clear
2:00 PM 58 °F - 31 °F 23% 29.81 in 6 mi ESE 11.2 mph - -  
2:00 PM 59.0 °F - 33.8 °F 39% 29.80 in 6.2 mi ESE 11.2 mph - N/A   Clear
3:00 PM 62.6 °F - 33.8 °F 34% 29.77 in 6.2 mi ESE 8.9 mph - N/A   Clear
3:30 PM 62.6 °F - 32.0 °F 32% 29.77 in 6.2 mi ESE 8.9 mph - N/A   Clear
4:00 PM 64.4 °F - 32.0 °F 30% 29.77 in 6.2 mi ESE 11.2 mph - N/A   Clear
5:00 PM 64 °F - 29 °F 16% 29.77 in 6 mi East 11.2 mph - -  
5:00 PM 64.4 °F - 32.0 °F 30% 29.77 in 6.2 mi SE 13.4 mph - N/A   Clear
6:00 PM 64.4 °F - 33.8 °F 32% 29.74 in 6.2 mi SE 8.9 mph - N/A   Clear
7:00 PM 57.2 °F - 33.8 °F 41% 29.74 in 6.2 mi ESE 6.7 mph - N/A   Partly Cloudy
8:00 PM 54 °F - 35 °F 37% 29.78 in 6 mi SE 2.2 mph - -   Scattered Clouds
8:00 PM 53.6 °F - 35.6 °F 51% 29.74 in 6.2 mi Variable 2.2 mph - N/A   Partly Cloudy
9:00 PM 51.8 °F - 35.6 °F 54% 29.74 in 6.2 mi ESE 8.9 mph - N/A   Clear
10:00 PM 51.8 °F - 33.8 °F 50% 29.71 in 6.2 mi ESE 8.9 mph - N/A   Clear
11:00 PM 48 °F - 34 °F 48% 29.75 in 6 mi East 6.7 mph - -  
11:00 PM 48.2 °F - 33.8 °F 58% 29.71 in 6.2 mi ESE 8.9 mph - N/A   Clear